Location: Mentone
(34.5413°N, 85.5351°W)
Time: 08:42:31
(UTC-05:00)

Transit 2A Rocket - Visible Passes

Search period start: 21 June 2018 00:00
Search period end: 01 July 2018 00:00
Orbit: 594 x 909 km, 66.7° (Epoch: 20 June)

Date Brightness Start Highest point End Pass type
(mag) Time Alt. Az. Time Alt. Az. Time Alt. Az.
21 Jun 4.8 03:52:12 28° SSW 03:54:54 79° WNW 03:59:41 10° NNE visible
22 Jun 5.3 03:11:06 41° SSE 03:12:29 55° ESE 03:17:11 10° NE visible
22 Jun 6.7 04:52:09 10° W 04:55:15 16° NW 04:58:12 10° NNW visible
23 Jun 6.2 02:29:58 29° ESE 02:30:08 29° ESE 02:34:17 10° NE visible
23 Jun 6.0 04:09:53 18° WSW 04:12:36 28° WNW 04:16:41 10° N visible
24 Jun 7.1 01:48:46 15° E 01:48:46 15° E 01:50:39 10° ENE visible
24 Jun 5.2 03:28:41 39° WSW 03:30:03 51° WNW 03:34:41 10° NNE visible
25 Jun 4.7 02:47:26 82° SSE 02:47:37 84° ESE 02:52:21 10° NNE visible
25 Jun 7.1 04:29:24 10° WNW 04:30:36 11° NW 04:31:48 10° NW visible
26 Jun 5.8 02:06:09 39° E 02:06:09 39° E 02:09:44 10° NE visible
26 Jun 6.6 03:46:03 16° W 03:47:51 19° NW 03:51:15 10° N visible
27 Jun 6.9 01:24:49 18° ENE 01:24:49 18° ENE 01:26:40 10° ENE visible
27 Jun 5.8 03:04:43 33° WNW 03:05:15 34° WNW 03:09:31 10° N visible
28 Jun 5.2 02:23:21 58° NNW 02:23:21 58° NNW 02:27:25 10° NNE visible
29 Jun 5.9 01:41:56 40° NE 01:41:56 40° NE 01:45:00 10° NNE visible
29 Jun 7.0 03:21:50 12° WNW 03:23:11 13° NW 03:25:23 10° NNW visible
30 Jun 6.8 01:00:30 21° ENE 01:00:30 21° ENE 01:02:15 10° NE visible
30 Jun 6.4 02:40:23 23° WNW 02:40:29 23° NW 02:44:12 10° N visible
